GSAT0215 (PRN E21)

Last updated on Mon Jul 22 2024 00:03:08 GMT+0000 (Coordinated Universal Time)

1 43055U 17079A 24202.74208724 .00000082 00000+0 00000+0 0 9993 2 43055 55.3277 240.6741 0004435 262.6156 97.4309 1.70474278 41115

Satellite not in orbit

GSAT0215 (PRN E21)